Regional Weather Roundup
Issued by NWS

Home | Current Version | Previous Version | Text Only | Print | Product List | Glossary On
Versions: 1 2 3 4 5 6 7 8 9 10 11 12 13 14 15 16 17 18 19 20 21 22 23 24 25 26 27 28 29 30 31 32 33 34 35 36 37 38 39 40 41 42 43 44 45 46 47 48 49 50
000
ASUS43 KDMX 282207
RWRIA

WEATHER ROUNDUP FOR IOWA
NATIONAL WEATHER SERVICE DES MOINES IA
400 PM CST WED JAN 28 2015

NOTE: "FAIR" INDICATES FEW OR NO CLOUDS BELOW 12,000 FEET WITH NO
SIGNIFICANT WEATHER AND/OR OBSTRUCTIONS TO VISIBILITY.

* - THESE STATIONS ARE NOT NWS STATIONS...THUS NOT UNDER NWS
QUALITY CONTROL.  THEY ALSO DO NOT REPORT WEATHER SUCH
AS PRECIPITATION OR FOG.

IAZ001>003-012>014-020>022-031>034-043>046-282300-
   NORTHWEST IOWA

CITY           SKY/WX    TMP DP  RH WIND       PRES   REMARKS
CARROLL *      SUNNY     48  39  71 SE13G20   29.67S
CHEROKEE *     MOSUNNY   45  39  81 E6        29.70R
DENISON *      SUNNY     52  37  58 W7        29.67R
LE MARS *      SUNNY     46  37  71 SW6       29.68F
ORANGE CITY *  SUNNY     46  37  71 CALM      29.68S
SHELDON *      PTSUNNY   37  37 100 SE9       29.67F FOG     WCI  31
SIOUX CITY     PTSUNNY   52  36  54 S5        29.67S
SPENCER        CLOUDY    37  32  82 SE9       29.71S HAZE    WCI  30
STORM LAKE *   SUNNY     41  37  87 NE6       29.70R
$$

IAZ055>058-069>071-079>083-090>094-282300-
   SOUTHWEST IOWA

CITY           SKY/WX    TMP DP  RH WIND       PRES   REMARKS
ATLANTIC *     SUNNY     57  39  51 S6        29.65F
AUDUBON *      SUNNY     52  39  62 S6        29.67F
CLARINDA *     SUNNY     68  39  34 S12       29.66F
COUNCIL BLFS * SUNNY     57  39  51 SW12      29.67R
CRESTON *      SUNNY     57  39  51 S9        29.66S
HARLAN  *      SUNNY     55  39  54 SW9       29.69R
LAMONI         PTSUNNY   59  40  49 SE12G23   29.67F
RED OAK *      SUNNY     66  39  37 S15G21    29.65F
SHENANDOAH *   SUNNY     66  39  37 SW15      29.65S
$$

IAZ047>049-059>061-072>074-084-282300-
   CENTRAL IOWA

CITY           SKY/WX    TMP DP  RH WIND       PRES   REMARKS
AMES           PTSUNNY   46  35  65 SE10G20   29.70F
ANKENY *       SUNNY     48  36  61 SE13      29.70F
CHARITON *     SUNNY     50  37  62 SE14      29.70F
DES MOINES     CLOUDY    52  37  56 SE14      29.70F
GRINNELL*      CLOUDY    43  36  75 SE20      29.74F
KNOXVILLE *    SUNNY     48  36  61 SE13G22   29.71F
MARSHALLTOWN   CLOUDY    40  34  79 SE22      29.72F WCI  30
PELLA *        PTSUNNY   46  36  66 SE15      29.75F
PERRY *          N/A     50  39  66 SE8       29.68F
$$

IAZ004>006-015-016-023>025-035-036-282300-
   NORTH CENTRAL IOWA

CITY           SKY/WX    TMP DP  RH WIND       PRES   REMARKS
ALGONA *       CLOUDY    36  34  93 SE6       29.74  FOG     WCI  31
CLARION *      MIX PCPN  37  37 100 SE16G24   29.71F WCI  28
ESTHERVILLE    CLOUDY    32  31  96 SE14      29.70F FOG     WCI  22
FORT DODGE *   CLOUDY    41  34  75 SE7       29.70S
MASON CITY     CLOUDY    34  31  88 SE13      29.74F FOG     WCI  25
FOREST CITY *  CLOUDY    34  32  93 SE10      29.74S FOG     WCI  26
IOWA FALLS *   PTSUNNY   39  34  81 SE13G21   29.74S WCI  32
$$

IAZ007>011-017>019-026>030-037>042-050>054-066-282300-
   NORTHEAST IOWA

CITY           SKY/WX    TMP DP  RH WIND       PRES   REMARKS
CEDAR RAPIDS   PTSUNNY   37  31  78 SE15      29.81F WCI  28
CHARLES CITY * CLOUDY    34  32  93 SE18G25   29.76F WCI  23
CLINTON *      MOSUNNY   34  27  75 SE18G25   29.94F WCI  23
DECORAH *      SUNNY     34  27  75 SE17G26   29.79F WCI  23
DUBUQUE        MOSUNNY   31  23  72 SE20      29.87F WCI  19
MONTICELLO *   SUNNY     34  30  86 SE14      29.86F WCI  24
OELWEIN *      CLOUDY    34  30  86 SE22G30   29.80F WCI  22
WATERLOO       CLOUDY    36  31  82 SE15G23   29.77F WCI  27
$$

IAZ064-065-067-068-078-282300-
   EAST CENTRAL IOWA

CITY           SKY/WX    TMP DP  RH WIND       PRES   REMARKS
DAVENPORT      PTSUNNY   36  28  73 SE23      29.90F WCI  24
IOWA CITY      PTSUNNY   38  32  79 SE13G21   29.85F WCI  30
MT. PLEASANT * PTSUNNY   41  34  75 SE20      29.84F
MUSCATINE *    SUNNY     39  32  75 SE15G23   29.87F WCI  31
QUAD CITIES    PTSUNNY   36  29  75 SE14      29.90F WCI  27
$$

IAZ062-063-075>077-085>089-095>099-282300-
   SOUTHEAST IOWA

CITY           SKY/WX    TMP DP  RH WIND       PRES   REMARKS
BURLINGTON     CLOUDY    42  32  67 S14G23    29.87F
FAIRFIELD *    SUNNY     43  34  70 SE18      29.82F
FORT MADISON * SUNNY     43  34  70 SE16G22   29.87F
KEOKUK *       SUNNY     45  32  61 SE16G25   29.85F
OSKALOOSA *      N/A     43  36  75 SE17      29.78F
CENTERVILLE *  SUNNY     48  37  66 SE16      29.76F
OTTUMWA        PTSUNNY   45  34  65 S16       29.76F
WASHINGTON *   SUNNY     43  39  87 SE15G24   29.84S
$$

ABBREVIATIONS USED IN REMARKS
   TC - TEMPERATURES IN CELSIUS
  WCI - WIND CHILL INDEX
   HX - HEAT INDEX
  VSB - VISIBILITY
$$




USA.gov is the U.S. government's official web portal to all federal, state and local government web resources and services.